Location: Antioch Baptist Church
(32.6696°N, 85.7327°W)
Time: 20:37:14
(UTC+00:00)

Cosmos 1656 - Pass Details

Date: 14 July 2020
Orbit: 799 x 848 km, 71.1° (Epoch: 13 August)

Event Time Altitude Azimuth Distance (km) Brightness Sun altitude
Rises 07:34:38 0° 341° (NNW) 3,311 7.3 -30.2°
Reaches altitude 10° 07:37:03 10° 343° (NNW) 2,379 6.5 -29.9°
Enters shadow 07:41:58 71° 16° (NNE) 852 3.7 -29.4°
